Weather Roundup
Issued by NWS

Home | Current Version | Previous Version | Text Only | Print | Product List | Glossary On
Versions: 1 2 3 4 5 6 7 8 9 10 11 12 13 14 15 16 17 18 19 20 21 22 23 24 25 26 27 28 29 30 31 32 33 34 35 36 37 38 39 40 41 42 43 44 45 46 47 48 49 50
000
NZUS93 KARX 291810
HRRWXR

CURRENT HOURLY OBSERVATIONS ACROSS
MUCH OF THE UPPER MISSISSIPPI VALLEY
NATIONAL WEATHER SERVICE LA CROSSE WI
1200 PM CST THU JAN 29 2015


...SOUTHEAST MINNESOTA...


CITY           SKY/WX    TMP DP  RH WIND       PRES   REMARKS
ROCHESTER      CLOUDY    30  25  81 NW24G32   30.16R WCI  16
ROCHESTER/MAYO CLOUDY    30  24  76 NW21G33   30.16R WCI  18
WINONA         CLOUDY    34  28  80 NW23G30   30.14R WCI  22
AUSTIN         CLOUDY    30  25  80 NW21G30   30.19R WCI  17
ALBERT LEA     CLOUDY    30  27  86 NW18G26   30.22R WCI  18
DODGE CENTER   CLOUDY    30  27  86 NW18G31   30.18R WCI  18
PRESTON        CLOUDY    30  26  83 NW20G30   30.14R WCI  17
OWATONNA       CLOUDY    30  25  80 NW21G29   30.23R WCI  17
FARIBAULT      CLOUDY    30  25  80 W23G30    30.24R WCI  17
$$

...ELSEWHERE IN MINNESOTA...


CITY           SKY/WX    TMP DP  RH WIND       PRES   REMARKS
MINNEAPOLIS    PTSUNNY   31  21  66 NW18G28   30.23R WCI  19
INTNL FALLS    CLOUDY    11   4  73 NW17      30.29R WCI  -6
DULUTH         FLURRIES  22  14  71 NW16G28   30.15R WCI   8
RED WING       CLOUDY    34  21  60 NW13G18   30.18R WCI  25
REDWOOD FALLS  CLOUDY    26  18  71 NW21G28   30.37R WCI  12
MANKATO        CLOUDY    28  21  74 NW22G33   30.28R WCI  15
WORTHINGTON    CLOUDY    28  21  74 NW28G33   30.36R WCI  13
FAIRMONT       CLOUDY    30  21  69 NW23G30   30.28R WCI  17
$$

...SOUTHWEST WISCONSIN...


CITY           SKY/WX    TMP DP  RH WIND       PRES   REMARKS
LA CROSSE      CLOUDY    36  26  67 NW20      30.10R WCI  25
PRAIRIE DU CHI CLOUDY    35  26  68 NW20      30.10R WCI  24
BOSCOBEL       CLOUDY    37  26  64 NW16G24   30.08R WCI  28
LONE ROCK      CLOUDY    35  26  69 NW12G22   30.04R WCI  27
PLATTEVILLE    CLOUDY    34  30  84 NW20G29   30.03R WCI  23
FORT MC COY    CLOUDY    34  25  71 NW13G20   30.08R WCI  25
CAMP DOUGLAS   CLOUDY    34  30  86 NW21G28   30.03R WCI  22
VIROQUA        CLOUDY    32  27  81 NW21G28   30.05R WCI  20
WIS DELLS      CLOUDY    32  25  74 N14G23    30.00R WCI  22
$$

...ELSEWHERE IN WISCONSIN...


CITY           SKY/WX    TMP DP  RH WIND       PRES   REMARKS
MILWAUKEE      CLOUDY    33  25  72 NW14G29   29.92R WCI  23
MADISON        CLOUDY    33  26  75 NW17G29   29.98R WCI  22
GREEN BAY      CLOUDY    33  25  72 NW15      29.92R WCI  23
EAU CLAIRE     CLOUDY    32  22  66 NW13G24   30.11R WCI  22
BLACK RVR FLS  CLOUDY    34  24  65 NW12G22   30.07S WCI  26
MEDFORD        CLOUDY    30  22  72 NW17G28   30.00S WCI  18
WAUSAU         CLOUDY    31  22  69 NW14G24   29.96R WCI  21
WIS RAPIDS     CLOUDY    32  22  66 NW16G26   30.01R WCI  21
MARSHFIELD     CLOUDY    32  24  72 NW22G30   30.01R WCI  19
RICE LAKE      CLOUDY    32  21  64 NW14G25   30.14R WCI  22
$$

...NORTHEAST IOWA...


CITY           SKY/WX    TMP DP  RH WIND       PRES   REMARKS
DECORAH        CLOUDY    34  27  75 NW17G25   30.11R WCI  23
MASON CITY     CLOUDY    32  25  75 NW25G37   30.24R WCI  19
CHARLES CITY   CLOUDY    32  28  86 NW30G37   30.19R WCI  18
OELWEIN        CLOUDY    32  30  93 NW24G33   30.15R WCI  19
$$

...ELSEWHERE IN IOWA...


CITY           SKY/WX    TMP DP  RH WIND       PRES   REMARKS
DES MOINES     CLOUDY    34  25  69 N17G29    30.29R WCI  23
IOWA CITY      CLOUDY    35  29  78 NW24G32   30.16R WCI  23
FORT DODGE     CLOUDY    32  25  74 N15G31    30.30R WCI  22
$$

...NORTHERN ILLINOIS...


CITY           SKY/WX    TMP DP  RH WIND       PRES   REMARKS
CHICAGO-OHARE  CLOUDY    33  26  75 NW20G25   29.93R WCI  21
CHICAGO-MIDWAY CLOUDY    35  27  72 NW21G30   29.93R WCI  24
MOLINE         CLOUDY    36  30  79 NW17G26   30.08R WCI  26
ROCKFORD       CLOUDY    34  26  72 NW16G25   30.01R WCI  24
PEORIA         CLOUDY    38  30  73 NW13G23   30.06R WCI  30
$$

NOTE: "FAIR" INDICATES FEW OR NO CLOUDS BELOW 12,000 FEET WITH NO
SIGNIFICANT WEATHER AND/OR OBSTRUCTIONS TO VISIBILITY. WIND
SPEEDS ARE IN MILES-PER-HOUR.



USA.gov is the U.S. government's official web portal to all federal, state and local government web resources and services.